Theta_e
327 327 327 326 326 326 326 326 326 325 325 325 324 322 320 319 318 317 319 320 321 320 320 320 320 320 320 320 320 321 321 320 320 320 318 316 316 315 315 316 316 316 316 315 314 313 312 312 312 311 308 301
325 325 325 325 324 324 324 324 324 324 323 323 321 320 318 317 316 316 315 316 318 319 317 317 317 319 319 318 318 319 319 318 317 317 316 315 314 313 313 313 314 314 313 313 312 311 311 310 310 309 307 299
319 323 324 323 323 323 323 323 322 321 320 319 319 318 316 315 314 313 313 314 316 316 314 314 315 317 317 317 317 317 317 316 316 315 314 313 313 311 310 311 311 311 311 311 310 310 310 309 308 306 302 299
312 319 320 321 321 321 321 320 320 318 316 315 314 314 312 311 309 309 307 310 310 313 313 311 312 314 313 315 316 316 315 315 314 313 312 311 310 309 308 308 308 308 308 308 308 308 308 307 305 299 298 297
308 313 317 317 318 318 318 318 317 316 314 312 310 309 309 306 300 299 300 300 300 307 304 310 311 311 311 312 313 313 313 313 312 311 310 310 309 307 306 304 303 304 306 306 306 306 305 303 297 298 297 297
307 309 311 306 308 307 311 313 312 307 303 307 302 307 300 298 300 298 298 301 307 302 303 306 310 310 309 309 310 311 311 311 311 310 309 307 306 305 304 301 293 295 300 302 303 302 302 296 296 296 297 296
305 304 303 302 303 305 307 306 302 300 301 297 299 298 297 298 297 297 298 299 302 302 308 305 308 307 306 305 305 307 308 308 308 308 306 305 304 302 300 293 291 291 291 292 298 298 294 292 294 295 295 295
302 300 300 300 301 301 301 300 300 298 297 297 297 298 297 295 297 297 297 307 307 304 298 302 306 305 305 303 301 300 298 302 303 303 303 303 300 298 295 291 291 291 291 291 291 292 291 291 292 294 294 293
300 298 298 298 298 298 298 298 298 297 297 296 297 297 296 296 297 296 297 296 294 293 293 292 292 292 291 291 292 296 289 290 292 292 291 291 293 290 291 290 290 291 291 291 291 291 291 291 292 292 293 292
299 299 297 296 297 297 297 297 296 297 297 296 296 296 297 297 295 294 293 293 292 292 292 291 290 290 289 290 290 292 289 289 289 289 289 290 290 290 290 290 290 291 292 290 290 290 290 291 291 291 291 290
298 297 296 296 297 296 296 296 296 296 295 296 296 296 297 295 294 293 292 292 292 291 291 291 290 289 289 288 289 291 288 289 289 289 289 289 290 289 289 290 290 290 290 289 290 290 290 290 290 290 290 290
297 297 296 296 299 298 298 297 296 296 295 296 296 296 296 295 293 293 292 291 291 290 290 290 290 289 288 288 289 290 289 289 288 288 288 289 289 289 289 289 289 289 289 289 289 289 289 289 289 289 289 289
297 297 296 296 297 296 300 296 296 296 295 295 295 295 296 295 293 292 292 291 291 290 290 290 289 288 287 288 288 289 288 288 288 288 288 289 288 288 288 288 289 289 288 288 288 288 288 288 288 288 288 288
297 297 296 296 297 296 299 295 295 295 294 294 294 294 295 294 293 292 291 291 290 290 289 289 289 288 287 287 288 288 288 288 288 287 287 288 288 288 287 288 289 288 287 287 287 287 287 287 287 288 288 288
297 297 296 296 297 296 297 295 295 294 294 293 293 293 294 293 293 292 291 291 290 289 289 288 288 287 287 286 287 287 287 288 288 287 287 288 287 287 287 287 287 288 287 286 286 287 287 287 287 287 288 288
296 296 296 296 296 296 296 295 295 294 293 294 292 292 293 292 292 293 291 291 290 289 289 288 287 287 286 286 286 287 287 287 287 287 288 288 287 287 287 287 286 288 286 285 286 286 286 286 286 287 287 287
296 296 296 296 296 296 296 295 294 293 292 293 292 292 292 292 292 292 291 290 290 291 288 288 287 286 287 287 287 287 288 287 286 286 286 287 288 287 286 286 286 287 286 285 285 285 286 286 286 286 286 287
295 296 296 296 295 296 295 295 294 293 292 292 292 291 291 291 292 291 290 290 289 289 288 288 287 286 286 286 287 287 287 286 286 286 286 286 286 289 285 284 285 285 284 284 284 284 285 285 285 286 286 286
295 295 295 295 294 294 295 294 294 293 292 292 292 291 291 291 292 291 290 290 289 288 288 287 286 286 286 287 286 286 286 285 285 285 286 286 284 283 284 284 286 284 284 284 284 284 285 285 286 286 286 286
295 295 295 295 295 294 294 293 293 292 292 292 291 291 290 291 291 290 290 289 289 288 287 287 286 286 286 286 286 286 286 285 285 285 286 285 283 283 284 285 283 284 283 284 284 284 285 285 286 285 285 285
294 294 294 294 294 294 293 293 292 292 292 291 291 290 290 290 291 290 290 289 288 288 287 286 286 285 286 287 285 285 285 285 286 285 285 284 285 283 283 283 283 283 283 283 284 284 284 284 285 284 284 285
294 294 294 293 293 293 292 291 291 291 291 291 291 290 290 290 291 290 289 288 288 287 287 286 286 286 286 286 285 284 284 284 284 284 283 283 283 284 283 282 282 283 283 284 284 284 283 284 284 284 284 285
293 293 292 291 291 291 291 290 289 290 290 290 290 290 290 290 290 290 288 288 288 287 287 286 286 285 286 286 284 284 284 284 284 283 282 282 282 283 282 282 283 283 283 283 283 283 283 284 284 284 284 285
292 291 291 290 289 289 290 289 289 289 290 290 290 290 289 290 289 289 288 288 287 287 286 286 285 285 285 285 284 284 283 283 282 282 282 282 282 282 284 284 283 282 282 282 281 283 283 283 283 282 284 283
291 291 290 289 290 291 290 289 289 289 289 289 290 290 290 289 289 288 288 288 287 286 287 286 285 285 284 284 284 284 284 283 282 282 282 284 284 281 280 281 281 282 282 280 279 280 281 282 282 284 285 283
292 292 292 291 291 291 290 289 289 289 289 289 290 290 289 289 288 288 288 288 287 286 286 285 285 285 284 284 284 284 283 282 285 284 282 282 281 282 280 280 282 283 280 278 278 278 278 279 281 283 282 283
292 292 292 291 290 291 289 289 290 290 289 289 289 289 289 289 288 288 287 287 287 286 286 285 285 284 284 284 284 284 282 283 283 282 282 281 281 280 281 281 283 281 281 278 279 279 278 275 277 281 279 280
292 292 290 289 290 289 289 288 289 288 287 287 288 288 288 288 288 288 287 287 286 286 285 285 285 284 284 284 284 283 283 282 282 281 281 281 282 280 279 278 280 282 280 279 278 276 277 276 277 275 276 278
291 290 288 287 287 287 286 286 286 286 285 287 288 288 287 288 288 288 287 287 286 286 285 284 284 284 284 283 283 283 282 282 282 281 281 282 281 279 279 279 278 280 281 279 282 278 277 275 275 275 275 278
290 290 289 287 287 286 286 286 285 286 286 286 287 288 288 287 288 288 287 286 286 286 285 284 284 284 283 283 283 283 282 282 281 281 281 281 281 280 279 280 278 277 281 281 281 280 278 277 276 275 276 277
291 290 289 289 289 288 288 287 287 288 288 288 288 288 287 287 287 287 287 286 286 285 285 284 284 283 283 283 282 283 281 281 281 281 281 281 280 280 282 280 277 278 278 278 279 280 279 280 281 279 278 275
Wind_Speed
12 14 15 15 15 15 15 15 15 15 15 15 15 15 15 15 14 14 13 13 13 13 13 13 13 13 13 13 13 13 13 14 14 14 14 14 14 14 14 14 14 14 14 15 15 15 16 16 16 14 10 6
11 13 15 15 15 15 15 15 15 15 15 15 15 15 15 15 14 14 14 13 13 13 13 13 12 13 13 13 13 13 13 14 14 14 14 14 14 14 14 14 14 14 15 15 15 15 15 15 15 13 11 6
8 12 13 15 15 15 15 15 16 16 15 15 15 15 14 13 13 12 13 13 13 13 12 12 12 13 13 13 13 13 13 13 14 14 14 14 14 14 14 15 15 15 15 16 16 16 16 14 11 10 7 6
5 9 12 13 14 14 15 15 16 16 15 14 14 14 13 11 8 9 8 11 8 11 12 12 8 12 13 12 12 12 13 13 13 14 14 14 14 14 14 14 14 14 15 15 16 16 16 14 11 7 6 6
5 6 10 9 11 12 14 14 15 15 13 11 11 10 9 9 6 5 5 6 5 7 5 8 10 12 12 12 12 12 12 12 12 12 13 13 13 13 14 13 13 13 14 15 15 14 14 11 7 6 6 7
4 5 6 5 5 6 7 9 10 9 7 8 6 9 8 6 5 5 4 5 6 4 4 7 10 10 12 11 11 11 11 11 11 12 12 12 13 13 12 11 6 6 9 12 13 12 11 7 6 6 6 6
5 5 5 5 5 5 6 6 6 6 6 6 6 6 6 6 6 5 4 4 4 4 7 7 9 11 11 11 10 10 10 10 11 11 12 13 12 11 10 5 4 4 4 5 8 7 6 6 6 6 6 6
6 6 6 6 6 6 6 6 6 5 5 6 6 6 6 6 5 5 5 6 8 6 5 7 8 10 9 9 9 9 6 7 9 9 10 11 10 6 4 4 4 4 3 3 4 4 5 5 5 5 5 5
7 6 6 6 6 6 6 6 5 5 5 5 7 6 6 6 4 5 6 5 6 6 6 5 5 4 4 3 3 5 3 3 3 3 4 4 5 5 5 5 4 3 5 3 4 4 4 4 4 4 4 4
8 8 7 7 7 6 6 6 6 5 5 6 7 6 6 6 6 6 6 5 5 5 6 5 5 4 3 3 3 2 4 3 3 3 4 5 5 5 5 5 5 4 4 4 4 5 4 4 4 4 4 4
7 8 7 7 7 7 7 6 6 6 6 6 6 6 7 7 7 7 6 6 6 6 6 6 5 4 3 3 3 2 4 4 3 4 5 5 5 4 5 5 5 5 4 4 4 5 4 5 5 5 5 5
8 7 7 7 7 7 7 7 7 6 6 6 7 6 7 6 7 8 7 6 6 6 5 6 4 4 3 3 3 2 3 5 4 5 4 4 4 6 5 5 5 5 5 5 5 5 5 5 5 5 5 5
8 8 7 7 8 8 7 7 7 7 6 7 7 6 7 7 8 7 7 7 7 6 6 6 5 4 4 3 3 3 3 3 4 5 3 4 4 5 5 5 5 4 4 4 5 5 6 5 6 6 6 5
9 9 9 9 9 8 8 7 7 6 7 7 7 7 7 7 7 8 8 8 6 7 7 6 5 4 4 4 3 3 4 3 4 4 3 4 4 4 4 5 4 4 4 5 4 5 5 5 5 5 5 6
10 9 10 10 9 8 9 8 7 7 7 6 6 7 8 7 7 7 7 8 8 7 7 6 6 5 4 4 3 3 3 2 3 3 4 4 4 4 4 4 3 5 5 5 5 4 5 6 6 6 6 5
10 11 10 10 9 9 9 8 8 7 7 7 7 6 8 7 8 7 7 8 8 8 7 7 6 5 5 4 3 3 3 3 3 4 3 3 3 3 4 3 4 3 5 5 5 5 5 5 6 6 6 6
11 10 9 10 10 9 9 9 8 8 8 8 7 6 8 8 8 7 8 8 8 8 7 7 6 5 5 5 4 3 3 3 3 3 4 4 3 4 3 3 4 3 3 4 5 5 6 6 6 6 6 6
10 10 10 9 9 9 9 9 9 9 7 7 7 7 8 8 8 7 7 8 7 7 7 7 6 6 5 5 4 3 3 4 4 4 4 3 4 3 3 4 3 4 5 4 4 5 5 5 6 6 6 6
12 10 10 10 9 9 10 9 9 8 7 7 7 7 7 8 7 7 7 7 8 7 7 7 6 6 6 5 4 5 3 5 3 4 4 3 4 3 3 3 3 3 3 4 6 5 5 6 6 6 6 6
12 12 10 10 9 9 9 9 9 8 8 8 7 7 7 7 7 7 7 7 7 7 7 7 7 6 5 5 5 5 3 3 5 4 4 1 2 3 3 3 4 3 3 3 5 5 5 6 6 6 5 6
10 10 10 10 10 10 9 9 8 7 7 7 7 7 7 7 7 7 7 7 6 7 7 6 6 6 6 5 5 5 4 4 3 4 3 2 2 3 4 4 4 4 3 5 5 6 6 6 6 6 5 5
11 10 9 8 8 8 8 7 6 6 7 7 7 7 7 8 7 7 7 7 6 7 6 6 6 6 6 6 6 5 4 3 3 3 3 3 2 3 4 5 4 4 5 5 6 6 7 8 6 5 5 5
9 8 6 5 6 6 6 5 5 6 7 7 7 7 7 8 8 8 8 8 7 8 7 7 6 6 6 6 6 6 5 4 3 3 2 3 3 2 3 3 1 1 4 5 6 6 7 7 7 5 4 3
8 7 8 9 5 5 7 6 7 7 8 7 7 7 8 8 8 7 8 8 8 8 7 7 7 7 6 6 6 7 6 5 5 5 4 3 3 3 2 2 1 2 3 3 5 6 6 7 7 5 3 3
12 12 9 6 11 12 10 9 7 8 7 8 7 8 8 9 8 8 8 8 8 8 8 7 6 6 5 5 6 6 6 5 5 4 4 4 2 3 3 2 3 3 1 4 4 2 4 7 5 3 2 2
13 13 15 15 14 11 10 10 11 11 9 9 8 9 9 8 8 9 9 8 8 8 8 8 7 7 7 7 6 5 4 4 4 4 4 4 3 1 3 2 1 4 2 5 2 6 7 6 7 3 2 2
14 11 9 9 8 10 7 6 6 6 7 6 8 9 9 8 9 9 8 9 9 9 8 8 8 8 7 7 7 7 6 5 5 5 5 5 6 5 1 3 1 3 4 1 3 2 0 3 6 5 3 3
11 9 6 4 6 5 6 6 5 5 5 6 7 9 8 9 10 10 9 9 9 8 8 8 9 7 7 7 7 8 8 7 7 6 5 4 5 6 5 2 1 2 3 2 2 5 1 2 1 2 1 5
10 10 8 6 6 5 5 4 5 5 6 8 9 8 10 12 10 10 9 9 9 8 9 8 7 8 7 7 7 7 8 8 8 7 6 7 6 5 7 5 3 0 1 3 1 2 2 3 2 1 3 6
12 12 13 11 11 11 10 9 10 15 17 13 14 15 8 7 10 10 9 9 9 8 7 8 8 7 8 8 8 7 7 7 6 6 7 7 6 5 4 7 6 3 0 1 1 1 2 2 2 3 3 2
12 12 12 17 17 16 16 15 13 9 6 10 8 6 10 10 8 9 10 9 9 8 8 7 7 8 8 7 7 6 7 7 8 7 7 5 5 6 6 6 5 7 4 1 2 2 3 2 1 1 2 2
Wind_Direction
151 151 150 149 148 147 146 144 142 139 135 131 127 123 119 115 112 111 110 107 102 97 94 91 89 89 86 82 79 79 78 74 72 71 68 64 60 57 54 50 47 44 39 37 35 32 28 23 21 19 24 17
148 152 151 149 148 148 147 146 144 141 137 132 127 122 119 115 113 112 112 111 106 99 92 88 89 89 86 81 77 77 75 72 70 68 64 60 56 51 47 45 42 39 37 34 33 31 28 22 19 16 19 19
153 154 152 149 148 149 149 147 145 140 135 132 129 125 121 116 110 105 104 106 106 101 95 87 84 89 86 83 80 79 77 74 71 67 63 61 57 51 47 42 37 34 32 28 24 21 18 15 16 17 17 12
150 153 149 149 149 150 151 150 146 139 135 131 129 128 124 119 113 107 101 98 95 97 90 88 86 88 84 82 80 79 77 75 72 68 63 60 56 53 49 42 36 33 33 30 25 21 15 10 9 13 12 9
152 152 149 146 148 150 152 151 148 143 133 127 126 124 127 125 122 120 111 104 101 88 77 79 84 87 82 78 80 82 82 82 81 77 71 67 63 58 52 41 32 27 27 26 24 20 15 11 11 4 5 4
160 151 141 145 143 144 150 149 141 135 140 139 137 132 127 128 128 120 112 103 90 79 74 79 81 90 89 83 83 86 88 88 87 83 77 73 68 64 58 52 38 24 20 20 20 17 14 12 7 2 1 3
165 150 147 148 145 148 146 146 143 151 148 148 144 135 131 125 120 118 111 107 102 93 97 93 95 98 94 87 83 83 85 87 85 83 81 76 72 67 63 57 49 40 24 16 15 14 13 10 3 358 359 356
165 158 155 155 156 153 155 156 161 160 154 151 149 144 135 129 127 122 130 125 110 97 89 85 82 84 85 90 87 81 64 66 76 75 71 74 74 70 70 68 58 47 33 27 17 13 14 7 357 357 350 349
173 167 160 163 164 161 163 166 168 165 154 151 150 148 141 139 129 126 121 119 120 118 111 103 97 94 96 100 92 100 98 98 81 82 73 60 62 60 57 52 44 44 30 18 14 15 7 3 352 346 342 337
171 165 170 171 171 165 171 169 172 167 159 154 155 153 148 139 131 130 131 132 127 123 119 112 113 112 109 87 85 84 91 75 68 56 56 56 52 43 47 45 34 26 29 14 8 6 4 359 349 342 333 330
169 178 177 170 170 165 178 175 169 176 170 167 163 156 155 147 145 141 139 133 131 128 125 122 125 123 113 114 97 85 93 74 59 59 52 50 49 43 40 34 27 20 18 20 9 3 358 353 346 339 332 330
177 177 174 177 171 177 176 170 178 178 179 169 168 163 161 151 148 148 143 143 137 142 128 136 136 137 118 113 106 89 84 82 58 51 49 55 44 40 37 34 20 17 14 8 11 1 354 347 343 337 331 326
179 177 176 176 178 181 179 179 181 178 175 174 173 164 163 158 151 148 146 149 150 141 137 141 141 136 130 123 134 103 75 89 83 63 63 61 58 52 40 32 23 18 10 7 5 5 346 342 337 334 329 326
180 181 181 183 184 181 177 182 178 175 181 181 170 169 170 166 158 157 155 152 150 144 146 144 142 133 142 137 152 123 109 117 106 110 84 76 70 64 48 38 16 23 7 2 359 357 344 335 329 323 321 321
184 180 187 186 182 180 183 175 172 181 181 178 180 172 167 166 160 156 154 151 152 146 145 146 145 146 150 139 153 141 131 135 125 115 107 103 92 78 65 46 24 27 9 356 351 347 342 327 326 321 319 317
184 187 187 184 181 186 180 171 177 179 181 182 180 169 169 166 161 157 157 154 153 151 149 150 148 155 148 156 168 143 135 119 111 109 114 101 92 89 82 56 37 22 22 355 341 337 332 325 323 319 317 318
187 185 185 182 187 184 174 177 175 180 184 182 177 169 169 167 161 160 158 159 156 153 149 148 149 156 157 162 156 148 134 112 104 94 88 69 79 76 71 65 33 30 27 3 337 332 319 325 315 310 313 313
184 185 186 183 185 181 175 179 178 183 181 177 174 170 169 164 164 158 158 156 156 150 147 150 154 156 160 164 150 140 122 114 115 110 97 107 89 87 76 63 38 27 9 348 325 321 312 314 305 308 307 310
186 183 183 182 183 182 181 178 181 180 174 176 175 168 167 166 163 160 159 160 153 153 149 153 156 161 168 157 146 135 139 129 125 116 122 128 106 94 78 72 58 41 10 337 328 317 314 304 306 301 299 307
184 182 182 182 182 180 183 178 180 179 178 174 169 169 165 168 163 162 161 159 155 151 155 155 160 168 161 156 139 137 142 126 131 121 112 122 136 105 59 54 34 39 1 330 315 310 304 297 295 296 299 302
181 178 181 183 183 182 180 181 179 176 169 166 170 170 168 170 166 164 162 160 158 148 155 156 158 169 162 150 144 147 144 132 139 129 121 99 85 99 97 61 28 7 2 329 312 308 304 296 294 292 293 291
180 180 175 179 182 180 183 183 172 168 166 174 175 169 171 171 166 166 163 160 156 149 155 158 160 166 160 150 144 143 134 137 125 119 126 109 67 84 84 63 44 357 343 331 316 315 305 298 291 286 286 283
172 166 161 157 169 179 181 174 170 165 176 178 174 177 170 168 169 166 164 162 160 155 159 159 163 163 165 154 151 142 131 131 128 108 83 116 80 47 78 104 77 358 327 320 313 305 298 295 289 286 274 276
163 163 169 171 166 179 193 182 173 183 183 174 180 178 170 173 170 168 168 167 164 157 159 161 167 165 165 161 151 147 143 153 148 142 121 118 108 81 49 45 59 11 340 311 296 289 299 291 290 288 273 256
171 175 175 179 189 194 184 183 178 183 183 183 184 178 176 174 173 172 169 168 163 165 162 164 163 161 171 163 156 155 163 158 154 151 148 137 108 107 77 51 7 351 27 5 329 322 311 311 295 289 234 231
182 185 185 182 190 184 180 178 182 188 190 187 182 181 179 176 175 175 174 169 169 166 167 165 169 172 173 166 162 158 148 150 149 142 135 133 76 24 125 117 39 356 80 18 24 327 334 324 321 325 33 185
186 186 183 182 175 176 176 198 191 183 178 169 177 185 181 177 178 176 175 174 174 171 173 171 168 176 171 168 160 150 156 157 155 159 164 171 147 120 47 104 70 45 68 140 266 217 35 349 6 329 358 303
181 169 151 136 140 153 153 172 165 160 152 165 167 186 184 187 182 181 179 177 175 175 174 172 174 168 170 173 170 163 158 163 167 163 165 167 175 149 121 129 96 64 71 106 53 15 64 253 110 340 329 327
156 138 128 115 98 103 93 79 145 155 187 184 184 179 192 193 181 180 179 179 181 177 176 173 171 173 174 171 172 164 163 167 172 170 170 172 168 171 144 146 138 60 79 70 61 143 63 356 4 206 268 330
160 165 161 154 156 170 183 186 181 195 194 185 190 195 177 168 184 182 180 181 180 179 171 176 176 174 173 174 173 173 171 160 152 166 170 187 170 156 162 138 135 132 53 94 104 124 130 165 207 299 278 28
169 170 178 181 184 184 187 192 206 200 187 188 187 163 180 184 182 186 180 183 180 180 178 174 175 177 180 177 174 170 158 163 170 170 176 178 168 171 147 131 125 149 159 39 48 92 111 89 91 146 358 299